Terminal Aerodrome Forecast
Issued by NWS

Home | Current Version | Previous Version | Graphics & Text | Print | Product List | Glossary On
Versions: 1 2 3 4 5 6 7 8 9 10 11 12 13 14 15 16 17 18 19 20 21 22 23 24 25 26 27 28 29 30 31 32 33 34 35 36 37 38 39 40 41 42 43 44 45 46 47 48 49 50
000
FTUS43 KLOT 251100
TAFGYY
TAF
KGYY 251122Z 2512/2612 05012G18KT 5SM BR OVC008
     FM251500 05018G28KT 3SM -SN BR OVC008
      TEMPO 2515/2519 1SM -SN BR VV005
     FM252000 03020G30KT 5SM -SHSN BLSN OVC015
     FM260300 03014G22KT P6SM BKN020
     FM260800 02009KT P6SM SCT020 SCT250=

USA.gov is the U.S. government's official web portal to all federal, state and local government web resources and services.